Regional Weather Roundup
Issued by NWS Northern Indiana

Home | Current Version | Previous Version | Text Only | Print | Product List | Glossary Off
Versions: 1 2 3 4 5 6 7 8 9 10 11 12 13 14 15 16 17 18 19 20 21 22 23 24 25 26 27 28 29 30 31 32 33 34 35 36 37 38 39 40 41 42 43 44 45 46 47 48 49 50

000
ASUS43 KIWX 280100
RWRIWX

KIWX WEATHER ROUNDUP
NATIONAL WEATHER SERVICE NORTHERN INDIANA
900 PM EDT FRI MAR 27 2015

NOTE: "FAIR" INDICATES FEW OR NO CLOUDS BELOW 12,000 FEET WITH NO
SIGNIFICANT WEATHER AND/OR OBSTRUCTIONS TO VISIBILITY.

* THESE STATIONS ARE NOT UNDER NWS QUALITY CONTROL. THEY ALSO MAY NOT
  REPORT WEATHER SUCH AS PRECIPITATION OR FOG.

INZ001>027-280200-
NORTHERN INDIANA

CITY           SKY/WX    TMP DP  RH WIND       PRES   REMARKS
GARY*          PTCLDY    27  10  50 N20       30.20R WCI  13
KNOX*            N/A     23   0  36 N16       30.16R WCI  10
SOUTH BEND     MOCLDY    22  10  60 N15       30.15R WCI   9
ELKHART*       CLEAR     21   7  53 NW8G16    30.14R WCI  12
GOSHEN         CLEAR     22  11  62 NW16      30.12R WCI   8
WARSAW*        CLEAR     21  10  63 NW12G18   30.12R WCI   9
ANGOLA*        CLEAR     25  12  58 NW8       30.06R WCI  16
FORT WAYNE     PTCLDY    25  11  55 NW14      30.10R WCI  13
PERU/GRISSOM   MOCLDY    24  10  56 NW16G24   30.12R WCI  10

$$
INZ028>050-280200-
CENTRAL INDIANA

CITY           SKY/WX    TMP DP  RH WIND       PRES   REMARKS
LAFAYETTE      CLEAR     24  11  57 N13       30.17R WCI  12
KOKOMO*          N/A     25  12  58 NW16      30.13R WCI  12
MUNCIE*        CLOUDY    26  13  57 NW18      30.09R WCI  13
INDIANAPOLIS   FLURRIES  27  14  58 NW14      30.11R WCI  16

$$
MIZ043>046-050>051-056>058-064>065-071>073-077>080-280200-
SOUTHWEST LOWER MICHIGAN

CITY           SKY/WX    TMP DP  RH WIND       PRES   REMARKS
BATTLE CREEK   CLEAR     24   9  52 W12       30.09R WCI  13
BENTON HARBOR  PTCLDY    21  12  68 VRB6      30.16R WCI  13
COLDWATER*     FAIR      24   6  46 NW8       30.08R WCI  15
HILLSDALE*     CLEAR     24   2  39 N3        30.05R
HOLLAND        CLEAR     24   8  50 NW12      30.15R WCI  13
GRAND RAPIDS   CLEAR     23   0  36 N13       30.12R WCI  11
KALAMAZOO      CLEAR     23   9  55 NW13      30.11R WCI  11
STURGIS*       CLEAR     21  10  63 NW13      30.10R WCI   9
THREE RIVERS*  FAIR      23  11  59 NW12      30.12R WCI  12

$$
OHZ001>008-015>018-024>025-280200-
NORTHWEST OHIO

CITY           SKY/WX    TMP DP  RH WIND       PRES   REMARKS
DEFIANCE       CLEAR     25   9  50 N6        30.09R WCI  18
FINDLAY        CLEAR     25   9  50 N8        30.07R WCI  16
TOLEDO EXPRESS MOCLDY    23   9  55 NE3       30.08R
TOLEDO METCALF MOCLDY    24  11  57 N6        30.10R WCI  17
LIMA           PTCLDY    26  12  55 N7        30.06R WCI  18

$$
AND FOR LAKE MICHIGAN COASTAL AND OPEN LAKE BUOY OBSERVATIONS

STATION/POSITION TEMP    WIND        PRES    VSBY  WAVE
                 AIR SEA DIR/SP/G                  HT/PER
                 (F)     (DEG/KT/KT) (MB)    (MI)  (FT/S)
CALUMET HARBOR    25     350/ 15/ 19 1021.1R
MICHIGAN CITY     23     340/ 24/ 28   N/A
BURNS HARBOR      25      10/ 17/ 23 1022.4R
SAINT JOSEPH      24     340/ 19/ 24 1021.3S

$$
&&


USA.gov is the U.S. government's official web portal to all federal, state and local government web resources and services.